Location: Boleita
(10.4833°N, 66.8167°W)
Time: 13:12:32
(UTC+00:00)

Cosmos 2369 Rocket - Pass Details

Date: 03 August 2024
Orbit: 826 x 853 km, 71.0° (Epoch: 14 September)

Event Time Altitude Azimuth Distance (km) Brightness Sun altitude
Rises 23:13:18 0° 175° (S) 3,353 5.1 -6.3°
Reaches altitude 10° 23:15:59 10° 165° (SSE) 2,421 4.3 -6.9°
Maximum altitude 23:20:50 32° 104° (ESE) 1,393 2.8 -8.0°
Drops below altitude 10° 23:25:42 10° 42° (NE) 2,426 4.4 -9.1°
Sets 23:28:22 0° 33° (NNE) 3,362 5.2 -9.8°
